Flag for U.S.A. Weather past 2 weeks in Warminster Township, Pennsylvania, U.S.A.

Now
38 °F

Clear.


Feels Like: 38 °F
Forecast: 36 / 46 °F
Wind: No wind

Location: Doylestown Airport

Current Time: Mar 31, 2015 at 3:00:06 AM

Latest Report: Mar 31, 2015 at 1:54 AM


Visibility: 10 mi

Pressure: 29.87 "Hg

Humidity: 58%

Dew point: 24 °F

Location of Warminster TownshipLocation

Historic Weather in Warminster Township — Graph

°F

Warminster Township temperature yesterday

Maximum temperature yesterday: 53 °F (at 4:54 PM)
Minimum temperature yesterday: 32 °F (at 5:54 AM)
Average temperature yesterday: 42 °F

Past Weeks' High & Low Weather Summary

 TemperatureHumidityPressure
High65 °F (Mar 26, 5:54 PM)100% (Mar 20, 12:54 PM)30.42 "Hg (Mar 20, 12:54 PM)
Low20 °F (Mar 19, 4:54 AM)21% (Mar 19, 4:54 PM)29.57 "Hg (Mar 26, 6:54 PM)
Average36 °F60%30.06 "Hg
* Reported Mar 16 1:54 AM — Mar 31 1:54 AM, Warminster Township, Weather by CustomWeather, © 2015

Note: Actual official high and low records may vary slightly from our data, if they occured in-between our weather recording intervals... More about our weather records

Advertising

Warminster Township weather history for previous 24 hours

 ConditionsComfort  
Time TempWeatherWind HumidityBarometerVisibility
1:54 AM
Tue, Mar 31
38 °FClear.No wind58%29.87 "Hg10 mi
12:54 AM42 °FPassing clouds.6 mph47%29.86 "Hg10 mi
11:54 PM
Mon, Mar 30
42 °FPassing clouds.5 mph45%29.87 "Hg10 mi
10:54 PM45 °FPartly cloudy.6 mph40%29.88 "Hg10 mi
9:54 PM46 °FPassing clouds.6 mph40%29.88 "Hg10 mi
8:54 PM47 °FClear.8 mph41%29.86 "Hg10 mi
7:54 PM47 °FSunny.7 mph42%29.84 "Hg10 mi
6:54 PM50 °FPartly sunny.15 mph36%29.83 "Hg10 mi
5:54 PM50 °FPassing clouds.13 mph36%29.81 "Hg10 mi
4:54 PM53 °FPartly sunny.12 mph35%29.80 "Hg10 mi
3:54 PM50 °FPartly sunny.16 mph44%29.80 "Hg10 mi
2:54 PM50 °FMostly cloudy.10 mph44%29.81 "Hg10 mi
1:54 PM50 °FMostly cloudy.16 mph44%29.82 "Hg10 mi
12:54 PM50 °FPartly sunny.13 mph44%29.82 "Hg10 mi
11:54 AM45 °FScattered clouds.13 mph53%29.84 "Hg10 mi
10:54 AM43 °FPartly sunny.10 mph58%29.86 "Hg10 mi
9:54 AM37 °FOvercast.6 mph79%29.88 "Hg10 mi
8:54 AM35 °FOvercast.8 mph82%29.89 "Hg10 mi
7:54 AM34 °FMostly cloudy.5 mph82%29.91 "Hg10 mi
6:54 AM34 °FMostly cloudy.7 mph79%29.92 "Hg10 mi
5:54 AM32 °FOvercast.5 mph82%29.94 "Hg10 mi
4:54 AM35 °FMostly cloudy.12 mph54%29.98 "Hg10 mi
3:54 AM36 °FMostly cloudy.6 mph44%30.01 "Hg10 mi
Weather by CustomWeather, © 2015

See weather overviewHow to use our weather pages